Fort Patrick Henry Observed Data For Previous 48 Hours

Caption
Day and Hour Reservoir Elevation (behind dam)* Tailwater Elevation (below dam)* Average Hourly Discharge*
1/15/2019 2 AM EST 1,261.54 1,195.83 6,338
1/15/2019 3 AM EST 1,261.18 1,195.82 6,318
1/15/2019 4 AM EST 1,260.90 1,195.82 6,348
1/15/2019 5 AM EST 1,260.61 1,195.82 6,314
1/15/2019 6 AM EST 1,260.62 1,195.79 6,298
1/15/2019 7 AM EST 1,260.72 1,195.84 6,291
1/15/2019 8 AM EST 1,260.72 1,195.90 6,377
1/15/2019 9 AM EST 1,260.72 1,195.90 6,360
1/15/2019 10 AM EST 1,260.79 1,195.86 6,411
1/15/2019 11 AM EST 1,260.75 1,195.89 6,372
1/15/2019 12 PM EST 1,260.75 1,195.86 6,377
1/15/2019 1 PM EST 1,260.73 1,195.85 6,389
1/15/2019 2 PM EST 1,260.72 1,195.87 6,370
1/15/2019 3 PM EST 1,260.72 1,195.84 6,314
1/15/2019 4 PM EST 1,260.74 1,195.82 6,352
1/15/2019 5 PM EST 1,260.75 1,195.79 6,254
1/15/2019 6 PM EST 1,260.85 1,195.78 6,266
1/15/2019 7 PM EST 1,260.92 1,195.84 6,277
1/15/2019 8 PM EST 1,260.92 1,195.82 6,345
1/15/2019 9 PM EST 1,260.92 1,195.86 6,338
1/15/2019 10 PM EST 1,260.92 1,195.88 6,347
1/15/2019 11 PM EST 1,260.91 1,195.84 6,342
1/16/2019 12 AM EST 1,260.86 1,195.87 6,347
1/16/2019 1 AM EST 1,260.81 1,195.85 6,375
1/16/2019 2 AM EST 1,260.77 1,195.87 6,356
1/16/2019 3 AM EST 1,260.73 1,195.91 6,388
1/16/2019 4 AM EST 1,260.74 1,195.88 6,382
1/16/2019 5 AM EST 1,260.72 1,195.91 6,366
1/16/2019 6 AM EST 1,260.71 1,195.81 6,357
1/16/2019 7 AM EST 1,260.79 1,195.78 6,266
1/16/2019 8 AM EST 1,260.87 1,195.87 6,337
1/16/2019 9 AM EST 1,260.88 1,195.82 6,323
1/16/2019 10 AM EST 1,260.85 1,195.87 6,310
1/16/2019 11 AM EST 1,260.85 1,195.90 6,407
1/16/2019 12 PM EST 1,260.78 1,195.89 6,405
1/16/2019 1 PM EST 1,260.85 1,195.94 6,453
1/16/2019 2 PM EST 1,260.79 1,195.90 6,435
1/16/2019 3 PM EST 1,260.81 1,195.90 6,401
1/16/2019 4 PM EST 1,260.81 1,195.86 6,369
1/16/2019 5 PM EST 1,260.79 1,195.86 6,363
1/16/2019 6 PM EST 1,260.78 1,195.89 6,380
1/16/2019 7 PM EST 1,260.86 1,195.93 6,386
1/16/2019 8 PM EST 1,260.86 1,195.80 6,303
1/16/2019 9 PM EST 1,260.83 1,195.79 6,258
1/16/2019 10 PM EST 1,260.50 1,195.87 6,236
1/16/2019 11 PM EST 1,260.18 1,195.85 6,346
1/17/2019 12 AM EST 1,259.85 1,195.85 6,311
1/17/2019 1 AM EST 1,259.51 1,195.92 6,348
1/17/2019 2 AM EST 1,259.47 1,192.55 3,182
1/17/2019 3 AM EST 1,259.47 1,192.46 3,086
1/17/2019 4 AM EST 1,259.47 1,192.40 2,963
1/17/2019 5 AM EST 1,259.48 1,192.40 2,974
1/17/2019 6 AM EST 1,259.52 1,192.47 3,009
1/17/2019 7 AM EST 1,259.84 1,192.92 3,068
1/17/2019 8 AM EST 1,259.85 1,195.85 6,337
1/17/2019 9 AM EST 1,259.98 1,195.86 6,649
1/17/2019 10 AM EST 1,260.04 1,196.58 6,758
1/17/2019 11 AM EST 1,260.00 1,197.19 8,772
1/17/2019 12 PM EST 1,259.92 1,197.12 8,788
1/17/2019 1 PM EST 1,259.84 1,197.17 8,759
1/17/2019 2 PM EST 1,259.67 1,196.88 7,165
1/17/2019 3 PM EST 1,259.76 1,197.28 1,115
1/17/2019 4 PM EST 1,259.71 1,197.10 8,129
1/17/2019 5 PM EST 1,259.63 1,197.19 8,798
1/17/2019 6 PM EST 1,259.54 1,197.20 8,794
1/17/2019 7 PM EST 1,259.45 1,197.17 8,803
1/17/2019 8 PM EST 1,259.37 1,197.19 8,792
1/17/2019 9 PM EST 1,259.28 1,197.18 8,797
1/17/2019 10 PM EST 1,259.19 1,197.16 8,803
1/17/2019 11 PM EST 1,259.11 1,197.14 8,821

Elevations are in feet above sea level. Discharges are in cubic feet per second and are reported at the end of the hour.